User: anonymous   Login
Location: Chequamegon National Forest
(46.1070°N, 90.8420°W)
Time: 17:21:20
(UTC-05:00)
Language:

ISS - Orbit

View from above orbital plane
View from above orbital plane
View from above satellite
View from above satellite

Ground track
Ground track

The orbit data is extracted from the following two-line orbital elements,

1 25544U 98067A   15184.53074755  .00006205  00000-0  96107-4 0  9995
2 25544 051.6455 002.4065 0003283 120.2862 288.3584 15.55489697950586
Epoch (UTC): 03 July 2015 12:44:16
Eccentricity: 0.0003283
inclination: 51.6455°
perigee height: 398 km
apogee height: 403 km
right ascension of ascending node: 2.4065°
argument of perigee: 120.2862°
revolutions per day: 15.55489697
mean anomaly at epoch: 288.3584°
orbit number at epoch: 95058

The dashed part of the orbit path shows where the satellite is in the earth's shadow,  

DLR